contact:dominique.lefevre@mio.osupytheas.fr, maurice.libes@osupytheas.fr, didier.mallarino@osupytheas.fr
Project:EMSO http://www.emso-fr.org/EMSO-France
Depth: 2436.0 m
Title:EMSO Ligure Ouest : Data MII capteur AQUADOPP
Date,Latitude,Longitude,X_East,Y_North,Z_Up,Amplitude_X,Amplitude_Y,Amplitude_Z,Batterie,SoundSpeed,Heading,Pitch,Roll,Pressure,TIS,Speed,Direction
, degrees North, degrees East, m.s-1, m.s-1,m.s-1, 1, 1, 1, Volt, m.s-1, degree, degree, degree, dbar, degree_C, m.s-1, degree
2022-12-15T00:04:03,42.805,6.029,0.0,-0.012,0.027,101.0,102.0,102.0,13.4,1505.2,336.5,-0.8,1.8,2471.085,13.29,0.012,180.0
2022-12-15T00:07:03,42.805,6.029,-0.023,-0.011,-0.005,102.0,102.0,101.0,13.3,1505.2,324.7,-0.7,1.8,2471.087,13.29,0.025,244.4
2022-12-15T00:10:03,42.805,6.029,-0.005,-0.007,0.003,100.0,102.0,102.0,13.4,1505.2,325.7,-0.8,1.8,2471.085,13.29,0.008,215.5
2022-12-15T00:13:03,42.805,6.029,0.023,-0.006,0.043,101.0,101.0,102.0,13.4,1505.2,323.1,-0.8,1.8,2471.068,13.29,0.023,104.6
2022-12-15T00:16:03,42.805,6.029,-0.012,0.001,0.027,101.0,102.0,101.0,13.4,1505.2,333.0,-0.8,1.8,2471.071,13.29,0.012,274.8
2022-12-15T00:19:03,42.805,6.029,-0.016,-0.015,0.002,102.0,101.0,102.0,13.4,1505.2,317.6,-0.8,1.8,2471.056,13.29,0.021,226.9
2022-12-15T00:22:03,42.805,6.029,0.003,-0.027,0.007,102.0,102.0,101.0,13.4,1505.2,319.2,-0.7,1.8,2471.021,13.29,0.027,173.7
2022-12-15T00:25:03,42.805,6.029,0.002,-0.011,0.02,101.0,101.0,102.0,13.3,1505.2,329.0,-0.8,1.8,2471.018,13.29,0.011,169.7
2022-12-15T00:28:03,42.805,6.029,0.018,-0.013,0.036,101.0,102.0,101.0,13.4,1505.2,325.5,-0.8,1.8,2471.052,13.29,0.022,125.8
2022-12-15T00:31:03,42.805,6.029,-0.006,-0.008,0.019,101.0,102.0,102.0,13.3,1505.2,335.3,-0.8,1.8,2471.063,13.29,0.01,216.9
2022-12-15T00:34:03,42.805,6.029,-0.024,0.007,0.059,100.0,102.0,102.0,13.4,1505.2,324.0,-0.8,1.8,2471.064,13.29,0.025,286.3
2022-12-15T00:37:03,42.805,6.029,-0.031,0.002,0.025,102.0,102.0,102.0,13.3,1505.2,330.2,-0.8,1.8,2471.049,13.29,0.031,273.7
2022-12-15T00:40:03,42.805,6.029,0.002,-0.006,0.023,101.0,102.0,102.0,13.4,1505.2,327.6,-0.7,1.8,2471.019,13.29,0.006,161.6
2022-12-15T00:43:03,42.805,6.029,-0.002,-0.018,0.019,101.0,102.0,101.0,13.3,1505.2,326.3,-0.8,1.8,2471.051,13.29,0.018,186.3
2022-12-15T00:46:03,42.805,6.029,0.007,-0.009,0.018,101.0,102.0,102.0,13.4,1505.2,323.1,-0.8,1.8,2471.052,13.29,0.011,142.1
2022-12-15T00:49:03,42.805,6.029,-0.026,0.018,0.028,101.0,101.0,101.0,13.4,1505.2,330.0,-0.8,1.8,2471.017,13.29,0.031,304.7
2022-12-15T00:52:03,42.805,6.029,-0.002,-0.026,0.032,100.0,102.0,102.0,13.3,1505.2,327.6,-0.7,1.8,2470.999,13.29,0.026,184.4
2022-12-15T00:55:03,42.805,6.029,-0.01,-0.01,0.007,101.0,101.0,102.0,13.4,1505.2,331.9,-0.8,1.8,2471.014,13.29,0.014,225.0
2022-12-15T00:58:03,42.805,6.029,0.005,-0.004,0.0,102.0,101.0,101.0,13.3,1505.2,333.4,-0.8,1.8,2471.037,13.29,0.006,128.7
2022-12-15T01:04:03,42.805,6.029,-0.025,0.003,-0.01,102.0,103.0,102.0,13.4,1505.2,334.8,-0.8,1.8,2471.084,13.28,0.025,276.8
2022-12-15T01:07:03,42.805,6.029,0.0,-0.008,0.015,101.0,102.0,101.0,13.3,1505.2,331.6,-0.8,1.8,2471.052,13.29,0.008,180.0
2022-12-15T01:10:03,42.805,6.029,0.007,-0.014,0.027,102.0,102.0,101.0,13.3,1505.2,325.1,-0.8,1.9,2471.064,13.29,0.015,153.4
2022-12-15T01:13:03,42.805,6.029,-0.004,0.011,0.046,101.0,103.0,101.0,13.4,1505.2,323.2,-0.8,1.8,2471.074,13.29,0.011,340.0
2022-12-15T01:16:03,42.805,6.029,-0.005,-0.003,0.052,101.0,102.0,101.0,13.4,1505.2,333.7,-0.7,1.8,2471.055,13.29,0.005,239.0
2022-12-15T01:19:03,42.805,6.029,-0.009,-0.016,-0.018,102.0,101.0,101.0,13.3,1505.2,327.0,-0.8,1.8,2471.042,13.29,0.018,209.4
2022-12-15T01:22:03,42.805,6.029,-0.017,-0.004,0.013,102.0,103.0,101.0,13.4,1505.2,331.4,-0.8,1.9,2471.045,13.29,0.017,256.8
2022-12-15T01:25:03,42.805,6.029,0.013,-0.015,0.027,104.0,101.0,101.0,13.3,1505.2,321.8,-0.7,1.8,2471.068,13.29,0.019,139.1
2022-12-15T01:28:03,42.805,6.029,0.016,-0.015,0.036,102.0,102.0,102.0,13.4,1505.2,322.0,-0.8,1.8,2471.02,13.29,0.021,133.1
2022-12-15T01:31:03,42.805,6.029,0.004,0.008,0.028,102.0,102.0,102.0,13.4,1505.2,335.2,-0.8,1.8,2471.035,13.29,0.008,26.6
2022-12-15T01:34:03,42.805,6.029,0.027,-0.005,0.009,101.0,102.0,101.0,13.3,1505.2,319.1,-0.8,1.8,2470.997,13.29,0.027,100.5
2022-12-15T01:37:03,42.805,6.029,0.009,0.012,0.056,100.0,102.0,102.0,13.3,1505.2,334.5,-0.7,1.8,2470.976,13.29,0.015,36.9
2022-12-15T01:40:03,42.805,6.029,-0.023,0.007,0.014,102.0,102.0,100.0,13.4,1505.2,322.6,-0.8,1.8,2471.063,13.29,0.024,286.9
2022-12-15T01:43:03,42.805,6.029,0.028,-0.026,0.031,102.0,101.0,101.0,13.4,1505.2,319.6,-0.7,1.8,2471.01,13.29,0.038,132.9
2022-12-15T01:46:03,42.805,6.029,0.012,-0.016,0.026,102.0,103.0,100.0,13.4,1505.2,332.6,-0.8,1.8,2471.045,13.29,0.02,143.1
2022-12-15T01:49:03,42.805,6.029,0.0,0.001,0.051,103.0,102.0,101.0,13.4,1505.2,321.5,-0.8,1.8,2471.063,13.29,0.001,0.0
2022-12-15T01:52:03,42.805,6.029,-0.017,-0.004,0.033,102.0,102.0,102.0,13.4,1505.2,323.4,-0.7,1.8,2471.059,13.29,0.017,256.8
2022-12-15T01:55:03,42.805,6.029,-0.035,-0.011,0.01,102.0,101.0,101.0,13.3,1505.2,315.0,-0.8,1.8,2471.046,13.29,0.036,252.6
2022-12-15T01:58:03,42.805,6.029,0.004,-0.01,0.01,102.0,102.0,101.0,13.4,1505.2,321.1,-0.8,1.8,2471.026,13.29,0.01,158.2
2022-12-15T02:04:03,42.805,6.029,0.018,-0.022,0.018,102.0,102.0,101.0,13.3,1505.2,330.0,-0.7,1.8,2471.073,13.28,0.028,140.7
2022-12-15T02:07:03,42.805,6.029,-0.011,-0.004,0.004,100.0,103.0,102.0,13.4,1505.2,333.8,-0.8,1.8,2471.065,13.28,0.011,250.0
2022-12-15T02:10:03,42.805,6.029,0.015,-0.004,0.022,102.0,100.0,101.0,13.4,1505.2,315.9,-0.7,1.8,2471.06,13.28,0.015,104.9
2022-12-15T02:13:03,42.805,6.029,0.017,-0.011,0.023,102.0,103.0,101.0,13.4,1505.2,327.0,-0.7,1.8,2471.083,13.29,0.02,122.9
2022-12-15T02:16:03,42.805,6.029,0.001,-0.018,-0.004,101.0,103.0,101.0,13.3,1505.2,325.7,-0.7,1.8,2471.066,13.29,0.018,176.8
2022-12-15T02:19:03,42.805,6.029,-0.003,-0.007,0.025,101.0,102.0,101.0,13.4,1505.2,321.2,-0.8,1.8,2471.041,13.29,0.007,203.2
2022-12-15T02:22:03,42.805,6.029,0.004,0.0,0.009,102.0,102.0,102.0,13.4,1505.2,326.7,-0.8,1.8,2471.063,13.29,0.004,90.0
2022-12-15T02:25:03,42.805,6.029,0.001,0.005,0.059,102.0,101.0,102.0,13.4,1505.2,319.3,-0.8,1.8,2471.015,13.29,0.005,11.3
2022-12-15T02:28:03,42.805,6.029,0.028,-0.01,0.036,102.0,102.0,102.0,13.4,1505.2,322.1,-0.8,1.8,2471.04,13.29,0.029,109.6
2022-12-15T02:31:03,42.805,6.029,0.02,-0.018,0.02,102.0,101.0,102.0,13.4,1505.2,321.4,-0.8,1.8,2471.05,13.29,0.026,132.0
2022-12-15T02:34:03,42.805,6.029,-0.014,-0.015,0.011,102.0,101.0,101.0,13.4,1505.2,328.8,-0.8,1.8,2471.036,13.29,0.02,223.0
2022-12-15T02:37:03,42.805,6.029,0.007,-0.009,0.025,102.0,102.0,100.0,13.4,1505.2,322.8,-0.8,1.8,2471.025,13.29,0.011,142.1
2022-12-15T02:40:03,42.805,6.029,-0.005,0.006,0.049,102.0,102.0,102.0,13.4,1505.2,318.9,-0.7,1.8,2471.022,13.29,0.007,320.2
2022-12-15T02:43:03,42.805,6.029,0.007,-0.01,0.025,102.0,102.0,101.0,13.4,1505.2,327.2,-0.8,1.8,2471.017,13.29,0.012,145.0
2022-12-15T02:46:03,42.805,6.029,-0.003,-0.025,0.018,102.0,102.0,101.0,13.3,1505.2,328.5,-0.8,1.8,2471.056,13.29,0.025,186.8
2022-12-15T02:49:03,42.805,6.029,0.009,-0.009,-0.003,102.0,102.0,101.0,13.3,1505.2,336.5,-0.8,1.8,2471.077,13.29,0.012,135.0
2022-12-15T02:52:03,42.805,6.029,0.009,-0.008,0.001,102.0,102.0,101.0,13.4,1505.2,330.9,-0.7,1.8,2471.004,13.29,0.012,131.6
2022-12-15T02:55:03,42.805,6.029,0.004,-0.006,0.014,102.0,103.0,101.0,13.4,1505.2,319.3,-0.8,1.8,2471.049,13.29,0.007,146.3
2022-12-15T02:58:03,42.805,6.029,0.009,0.011,0.048,102.0,102.0,101.0,13.4,1505.2,333.7,-0.7,1.8,2471.012,13.29,0.014,39.3
2022-12-15T03:04:03,42.805,6.029,-0.002,0.001,0.04,100.0,102.0,102.0,13.4,1505.2,318.1,-0.8,1.8,2471.049,13.28,0.002,296.6
2022-12-15T03:07:03,42.805,6.029,-0.004,0.005,0.029,103.0,101.0,102.0,13.4,1505.2,321.5,-0.8,1.8,2471.062,13.28,0.006,321.3
2022-12-15T03:10:03,42.805,6.029,-0.023,-0.034,-0.028,102.0,102.0,100.0,13.3,1505.2,331.5,-0.8,1.8,2471.076,13.28,0.041,214.1
2022-12-15T03:13:03,42.805,6.029,-0.006,-0.022,-0.001,101.0,102.0,101.0,13.3,1505.2,317.9,-0.8,1.8,2471.071,13.28,0.022,195.3
2022-12-15T03:16:03,42.805,6.029,0.016,-0.017,0.019,102.0,103.0,101.0,13.4,1505.2,333.4,-0.8,1.8,2471.071,13.29,0.023,136.7
2022-12-15T03:19:03,42.805,6.029,0.012,-0.011,0.021,102.0,102.0,102.0,13.4,1505.2,330.8,-0.8,1.8,2471.023,13.29,0.016,132.5
2022-12-15T03:22:03,42.805,6.029,0.009,-0.028,0.007,101.0,103.0,100.0,13.4,1505.2,337.5,-0.8,1.8,2471.027,13.29,0.029,162.2
2022-12-15T03:25:03,42.805,6.029,-0.005,-0.011,0.025,102.0,103.0,102.0,13.4,1505.2,334.8,-0.8,1.8,2471.033,13.29,0.012,204.4
2022-12-15T03:28:03,42.805,6.029,0.005,-0.006,0.026,102.0,102.0,102.0,13.4,1505.2,329.4,-0.8,1.8,2471.047,13.29,0.007,140.2
2022-12-15T03:31:03,42.805,6.029,-0.008,-0.014,0.018,103.0,100.0,102.0,13.4,1505.2,324.7,-0.8,1.8,2470.998,13.29,0.016,209.7
2022-12-15T03:34:03,42.805,6.029,0.014,-0.025,0.003,102.0,102.0,100.0,13.4,1505.2,316.4,-0.7,1.8,2471.033,13.29,0.028,150.7
2022-12-15T03:37:03,42.805,6.029,0.0,-0.008,0.002,102.0,101.0,101.0,13.4,1505.2,321.6,-0.8,1.8,2470.99,13.29,0.008,180.0
2022-12-15T03:40:03,42.805,6.029,0.014,-0.026,0.007,101.0,104.0,102.0,13.4,1505.2,336.0,-0.8,1.8,2471.024,13.29,0.029,151.7
2022-12-15T03:43:03,42.805,6.029,-0.005,-0.017,0.006,101.0,102.0,101.0,13.4,1505.2,337.7,-0.8,1.8,2471.021,13.29,0.017,196.4
2022-12-15T03:46:03,42.805,6.029,0.014,-0.015,0.017,102.0,102.0,102.0,13.4,1505.2,326.7,-0.8,1.8,2471.071,13.29,0.02,137.0
2022-12-15T03:49:03,42.805,6.029,0.016,-0.029,-0.013,102.0,102.0,101.0,13.4,1505.2,322.6,-0.8,1.8,2470.996,13.29,0.033,151.1
2022-12-15T03:52:03,42.805,6.029,0.018,-0.012,0.018,103.0,102.0,101.0,13.3,1505.2,325.4,-0.8,1.8,2471.048,13.29,0.021,123.7
2022-12-15T03:55:03,42.805,6.029,0.018,-0.015,0.0,104.0,101.0,101.0,13.4,1505.2,319.7,-0.8,1.8,2471.014,13.29,0.023,129.8
2022-12-15T03:58:03,42.805,6.029,-0.01,-0.01,0.019,101.0,102.0,102.0,13.3,1505.2,319.6,-0.8,1.8,2471.025,13.29,0.014,225.0
2022-12-15T04:04:03,42.805,6.029,0.035,-0.024,0.001,100.0,103.0,102.0,13.4,1505.2,327.4,-0.8,1.8,2471.055,13.28,0.042,124.4
2022-12-15T04:07:03,42.805,6.029,-0.002,-0.019,-0.01,101.0,102.0,102.0,13.4,1505.2,324.2,-0.8,1.8,2471.052,13.28,0.019,186.0
2022-12-15T04:10:03,42.805,6.029,0.014,-0.003,0.029,101.0,103.0,101.0,13.4,1505.2,323.8,-0.7,1.8,2471.064,13.28,0.014,102.1
2022-12-15T04:13:03,42.805,6.029,-0.003,-0.022,-0.016,102.0,103.0,101.0,13.4,1505.2,318.4,-0.7,1.8,2471.036,13.28,0.022,187.8
2022-12-15T04:16:03,42.805,6.029,-0.015,-0.021,0.016,101.0,103.0,101.0,13.4,1505.2,336.9,-0.8,1.8,2471.023,13.29,0.025,215.5
2022-12-15T04:19:03,42.805,6.029,0.005,-0.005,0.019,103.0,103.0,101.0,13.4,1505.2,328.7,-0.8,1.8,2471.059,13.29,0.007,135.0
2022-12-15T04:22:03,42.805,6.029,0.034,-0.035,0.003,102.0,101.0,101.0,13.4,1505.2,326.5,-0.8,1.8,2471.031,13.29,0.048,135.8
2022-12-15T04:25:03,42.805,6.029,0.017,-0.03,-0.004,102.0,102.0,101.0,13.4,1505.2,322.8,-0.8,1.8,2471.018,13.29,0.034,150.5
2022-12-15T04:28:03,42.805,6.029,0.025,-0.029,-0.006,101.0,101.0,101.0,13.4,1505.2,331.7,-0.8,1.8,2471.001,13.29,0.038,139.2
2022-12-15T04:31:03,42.805,6.029,0.018,-0.027,0.007,102.0,101.0,101.0,13.4,1505.2,329.6,-0.8,1.8,2471.005,13.29,0.032,146.3
2022-12-15T04:34:03,42.805,6.029,0.015,-0.017,0.031,102.0,101.0,101.0,13.4,1505.2,336.8,-0.8,1.8,2471.028,13.29,0.022,138.6
2022-12-15T04:37:03,42.805,6.029,0.01,-0.03,0.0,102.0,101.0,102.0,13.3,1505.2,327.4,-0.8,1.9,2470.988,13.29,0.031,161.6
2022-12-15T04:40:03,42.805,6.029,0.032,-0.018,0.032,101.0,102.0,101.0,13.3,1505.2,327.6,-0.7,1.8,2471.003,13.29,0.036,119.4
2022-12-15T04:43:03,42.805,6.029,0.027,0.0,0.085,100.0,103.0,102.0,13.4,1505.2,320.7,-0.7,1.8,2471.006,13.29,0.026,90.0
2022-12-15T04:46:03,42.805,6.029,0.001,0.0,0.04,102.0,101.0,102.0,13.4,1505.2,327.2,-0.7,1.8,2471.003,13.29,0.001,90.0
2022-12-15T04:49:03,42.805,6.029,0.004,-0.024,0.019,102.0,101.0,102.0,13.4,1505.2,332.1,-0.8,1.8,2471.009,13.29,0.024,170.5
2022-12-15T04:52:03,42.805,6.029,0.018,-0.008,0.038,103.0,100.0,102.0,13.4,1505.2,320.8,-0.7,1.9,2470.987,13.29,0.019,114.0
2022-12-15T04:55:03,42.805,6.029,0.011,-0.014,0.006,102.0,103.0,103.0,13.4,1505.2,322.7,-0.8,1.9,2471.009,13.29,0.017,141.8
2022-12-15T04:58:03,42.805,6.029,0.017,-0.012,0.054,101.0,102.0,102.0,13.3,1505.2,329.2,-0.8,1.8,2471.04,13.29,0.02,125.2
2022-12-15T05:04:03,42.805,6.029,0.023,-0.061,0.006,102.0,101.0,101.0,13.4,1505.2,322.1,-0.8,1.8,2471.066,13.28,0.065,159.3
2022-12-15T05:07:03,42.805,6.029,0.039,0.001,0.045,102.0,102.0,102.0,13.4,1505.2,321.7,-0.8,1.8,2471.062,13.28,0.039,88.5
2022-12-15T05:10:03,42.805,6.029,0.009,-0.03,0.018,100.0,103.0,100.0,13.3,1505.2,323.5,-0.8,1.8,2471.058,13.28,0.031,163.3
2022-12-15T05:13:03,42.805,6.029,0.011,-0.02,0.034,102.0,101.0,101.0,13.3,1505.2,325.6,-0.8,1.8,2471.048,13.28,0.022,151.2
2022-12-15T05:16:03,42.805,6.029,0.031,-0.01,0.04,102.0,101.0,101.0,13.3,1505.2,318.6,-0.8,1.8,2471.045,13.28,0.032,107.9
2022-12-15T05:19:03,42.805,6.029,0.0,-0.025,0.001,101.0,101.0,101.0,13.4,1505.2,333.0,-0.8,1.8,2471.03,13.28,0.025,180.0
2022-12-15T05:22:03,42.805,6.029,0.014,-0.021,0.016,101.0,102.0,102.0,13.4,1505.2,320.1,-0.7,1.8,2471.039,13.28,0.025,146.3
2022-12-15T05:25:03,42.805,6.029,0.022,-0.031,0.014,101.0,101.0,101.0,13.4,1505.2,322.6,-0.8,1.8,2471.028,13.28,0.038,144.6
2022-12-15T05:28:03,42.805,6.029,0.015,-0.027,0.03,102.0,102.0,101.0,13.4,1505.2,326.9,-0.7,1.9,2470.999,13.29,0.03,150.9
2022-12-15T05:31:03,42.805,6.029,0.026,-0.006,0.051,102.0,102.0,102.0,13.4,1505.2,331.9,-0.7,1.8,2471.031,13.29,0.026,103.0
2022-12-15T05:34:03,42.805,6.029,0.005,-0.027,-0.005,102.0,102.0,101.0,13.4,1505.2,337.3,-0.8,1.8,2471.04,13.29,0.027,169.5
2022-12-15T05:37:03,42.805,6.029,0.035,-0.024,0.039,101.0,101.0,101.0,13.3,1505.2,329.2,-0.7,1.8,2470.977,13.29,0.042,124.4
2022-12-15T05:40:03,42.805,6.029,0.038,-0.012,0.024,101.0,102.0,101.0,13.3,1505.2,320.7,-0.8,1.8,2471.019,13.29,0.039,107.5
2022-12-15T05:43:03,42.805,6.029,0.031,-0.03,0.027,101.0,101.0,101.0,13.4,1505.2,325.7,-0.8,1.8,2471.041,13.29,0.043,134.1
2022-12-15T05:46:03,42.805,6.029,0.015,-0.051,-0.013,101.0,102.0,101.0,13.4,1505.2,320.4,-0.8,1.8,2471.033,13.29,0.053,163.6
2022-12-15T05:49:03,42.805,6.029,0.022,-0.026,0.007,100.0,101.0,101.0,13.3,1505.2,329.7,-0.8,1.8,2471.025,13.29,0.034,139.8
2022-12-15T05:52:03,42.805,6.029,0.035,-0.038,0.005,101.0,101.0,101.0,13.3,1505.2,323.1,-0.8,1.8,2471.051,13.29,0.051,137.4
2022-12-15T05:55:03,42.805,6.029,0.022,-0.031,0.01,100.0,101.0,100.0,13.3,1505.2,330.3,-0.8,1.8,2471.0,13.29,0.038,144.6
2022-12-15T05:58:03,42.805,6.029,0.019,-0.031,-0.019,101.0,101.0,101.0,13.3,1505.2,317.8,-0.8,1.8,2471.004,13.29,0.036,148.5
2022-12-15T06:04:03,42.805,6.029,0.003,-0.03,0.036,102.0,101.0,101.0,13.3,1505.2,329.4,-0.8,1.8,2471.065,13.28,0.03,174.3
2022-12-15T06:07:03,42.805,6.029,0.012,-0.041,0.01,101.0,101.0,101.0,13.4,1505.2,329.1,-0.8,1.8,2471.054,13.28,0.042,163.7
2022-12-15T06:10:03,42.805,6.029,0.03,-0.021,0.009,100.0,102.0,101.0,13.4,1505.2,324.5,-0.8,1.8,2471.049,13.28,0.036,125.0
2022-12-15T06:13:03,42.805,6.029,0.016,-0.015,0.008,101.0,101.0,102.0,13.4,1505.2,322.9,-0.7,1.8,2471.09,13.28,0.021,133.1
2022-12-15T06:16:03,42.805,6.029,0.032,-0.021,0.03,100.0,101.0,101.0,13.4,1505.2,323.2,-0.7,1.8,2471.042,13.28,0.038,123.3
2022-12-15T06:19:03,42.805,6.029,0.011,-0.028,0.006,101.0,103.0,101.0,13.4,1505.2,321.1,-0.8,1.8,2471.047,13.28,0.03,158.6
2022-12-15T06:22:03,42.805,6.029,0.006,0.0,0.043,101.0,102.0,101.0,13.3,1505.2,324.0,-0.7,1.8,2471.066,13.29,0.006,90.0
2022-12-15T06:25:03,42.805,6.029,0.004,-0.007,0.022,101.0,102.0,101.0,13.3,1505.2,324.6,-0.8,1.8,2471.008,13.29,0.008,150.3
2022-12-15T06:28:03,42.805,6.029,0.0,-0.011,0.027,101.0,102.0,101.0,13.4,1505.2,332.3,-0.8,1.8,2471.047,13.29,0.011,180.0
2022-12-15T06:31:03,42.805,6.029,0.019,-0.016,0.04,102.0,103.0,101.0,13.4,1505.2,317.9,-0.8,1.8,2471.028,13.29,0.024,130.1
2022-12-15T06:34:03,42.805,6.029,0.006,-0.034,0.01,102.0,103.0,101.0,13.4,1505.2,331.9,-0.8,1.8,2471.02,13.29,0.034,170.0
2022-12-15T06:37:03,42.805,6.029,0.004,-0.013,0.014,101.0,103.0,101.0,13.4,1505.2,327.9,-0.8,1.8,2471.015,13.29,0.013,162.9
2022-12-15T06:40:03,42.805,6.029,0.011,-0.029,0.005,102.0,102.0,101.0,13.3,1505.2,331.7,-0.8,1.8,2471.065,13.29,0.031,159.2
2022-12-15T06:43:03,42.805,6.029,0.004,-0.015,0.052,101.0,102.0,102.0,13.4,1505.2,326.1,-0.8,1.8,2471.046,13.29,0.015,165.1
2022-12-15T06:46:03,42.805,6.029,0.021,-0.02,0.041,102.0,102.0,101.0,13.4,1505.2,331.5,-0.7,1.8,2471.099,13.29,0.028,133.6
2022-12-15T06:49:03,42.805,6.029,0.022,-0.025,0.008,102.0,103.0,101.0,13.4,1505.2,324.2,-0.8,1.8,2471.056,13.29,0.033,138.7
2022-12-15T06:52:03,42.805,6.029,0.026,-0.023,0.013,100.0,103.0,102.0,13.4,1505.2,331.0,-0.8,1.8,2471.064,13.29,0.034,131.5
2022-12-15T06:55:03,42.805,6.029,0.01,-0.014,0.037,101.0,102.0,101.0,13.4,1505.2,321.3,-0.8,1.8,2471.078,13.29,0.017,144.5
2022-12-15T06:58:03,42.805,6.029,-0.005,-0.002,0.011,101.0,102.0,102.0,13.3,1505.2,317.4,-0.8,1.8,2471.055,13.29,0.005,248.2
2022-12-15T07:04:03,42.805,6.029,0.008,-0.014,-0.003,101.0,102.0,101.0,13.4,1505.2,328.4,-0.7,1.8,2471.079,13.28,0.016,150.3
2022-12-15T07:07:03,42.805,6.029,0.022,-0.013,0.026,102.0,101.0,101.0,13.4,1505.2,323.7,-0.8,1.8,2471.078,13.28,0.025,120.6
2022-12-15T07:10:03,42.805,6.029,0.0,-0.013,0.036,101.0,103.0,101.0,13.4,1505.2,318.4,-0.8,1.9,2471.088,13.28,0.013,180.0
2022-12-15T07:13:03,42.805,6.029,-0.007,-0.026,0.008,102.0,103.0,102.0,13.4,1505.2,324.0,-0.8,1.8,2471.084,13.28,0.026,195.1
2022-12-15T07:16:03,42.805,6.029,-0.001,-0.017,-0.013,102.0,102.0,101.0,13.3,1505.2,329.7,-0.8,1.8,2471.079,13.28,0.017,183.4
2022-12-15T07:19:03,42.805,6.029,0.007,-0.026,-0.009,100.0,102.0,102.0,13.3,1505.2,326.9,-0.8,1.8,2471.067,13.28,0.026,164.9
2022-12-15T07:22:03,42.805,6.029,0.017,-0.022,0.001,101.0,103.0,101.0,13.3,1505.2,331.0,-0.8,1.8,2471.096,13.28,0.027,142.3
2022-12-15T07:25:03,42.805,6.029,0.022,-0.023,0.007,101.0,102.0,102.0,13.4,1505.2,329.0,-0.8,1.8,2471.07,13.28,0.031,136.3
2022-12-15T07:28:03,42.805,6.029,0.02,-0.024,0.022,103.0,101.0,100.0,13.4,1505.2,317.0,-0.7,1.8,2471.05,13.29,0.031,140.2
2022-12-15T07:31:03,42.805,6.029,0.014,-0.042,0.008,102.0,102.0,101.0,13.3,1505.2,335.3,-0.8,1.8,2471.092,13.29,0.044,161.6
2022-12-15T07:34:03,42.805,6.029,0.022,-0.019,0.027,102.0,104.0,101.0,13.4,1505.2,324.5,-0.8,1.8,2471.087,13.29,0.029,130.8
2022-12-15T07:37:03,42.805,6.029,0.002,-0.007,-0.005,103.0,102.0,101.0,13.3,1505.2,337.3,-0.7,1.8,2471.079,13.29,0.007,164.1
2022-12-15T07:40:03,42.805,6.029,0.012,-0.014,0.009,101.0,101.0,102.0,13.4,1505.2,326.3,-0.8,1.8,2471.07,13.29,0.018,139.4
2022-12-15T07:43:03,42.805,6.029,0.028,-0.028,0.016,102.0,102.0,102.0,13.3,1505.2,336.0,-0.8,1.8,2471.064,13.29,0.039,135.0
2022-12-15T07:46:03,42.805,6.029,0.019,-0.026,-0.024,101.0,103.0,102.0,13.4,1505.2,327.2,-0.8,1.8,2471.051,13.29,0.032,143.8
2022-12-15T07:49:03,42.805,6.029,0.013,-0.031,-0.004,104.0,102.0,102.0,13.4,1505.2,326.9,-0.8,1.8,2471.07,13.29,0.033,157.3
2022-12-15T07:52:03,42.805,6.029,0.026,-0.028,0.012,102.0,102.0,101.0,13.4,1505.2,327.6,-0.8,1.8,2471.096,13.29,0.038,137.1
2022-12-15T07:55:03,42.805,6.029,0.006,-0.037,-0.002,101.0,102.0,102.0,13.3,1505.2,331.0,-0.7,1.8,2471.123,13.29,0.037,170.8
2022-12-15T07:58:03,42.805,6.029,0.025,-0.033,-0.002,102.0,103.0,102.0,13.3,1505.2,318.4,-0.8,1.8,2471.065,13.29,0.041,142.8
2022-12-15T08:04:03,42.805,6.029,0.02,-0.024,0.001,102.0,102.0,101.0,13.3,1505.2,328.6,-0.8,1.8,2471.129,13.28,0.031,140.2
2022-12-15T08:07:03,42.805,6.029,0.035,-0.016,0.026,101.0,102.0,102.0,13.4,1505.2,330.6,-0.8,1.8,2471.133,13.28,0.038,114.6
2022-12-15T08:10:03,42.805,6.029,0.02,-0.023,0.011,102.0,102.0,101.0,13.4,1505.2,331.3,-0.7,1.8,2471.158,13.28,0.03,139.0
2022-12-15T08:13:03,42.805,6.029,0.026,-0.036,0.01,103.0,102.0,101.0,13.4,1505.2,321.0,-0.7,1.8,2471.14,13.28,0.044,144.2
2022-12-15T08:16:03,42.805,6.029,0.031,-0.033,-0.001,103.0,102.0,102.0,13.4,1505.2,328.7,-0.7,1.9,2471.12,13.28,0.045,136.8
2022-12-15T08:19:03,42.805,6.029,0.02,-0.007,0.048,103.0,101.0,102.0,13.4,1505.2,322.0,-0.8,1.8,2471.094,13.29,0.021,109.3
2022-12-15T08:22:03,42.805,6.029,0.017,-0.005,0.046,101.0,103.0,102.0,13.4,1505.2,323.7,-0.7,1.8,2471.13,13.29,0.017,106.4
2022-12-15T08:25:03,42.805,6.029,0.011,-0.032,-0.006,102.0,104.0,100.0,13.4,1505.2,327.0,-0.7,1.8,2471.159,13.29,0.033,161.0
2022-12-15T08:28:03,42.805,6.029,0.007,-0.025,-0.01,103.0,103.0,102.0,13.3,1505.2,327.9,-0.8,1.8,2471.145,13.29,0.025,164.4
2022-12-15T08:31:03,42.805,6.029,0.041,-0.029,0.023,102.0,102.0,101.0,13.3,1505.2,323.8,-0.7,1.8,2471.107,13.29,0.05,125.3
2022-12-15T08:34:03,42.805,6.029,0.02,-0.023,0.013,102.0,102.0,101.0,13.3,1505.2,326.3,-0.8,1.8,2471.157,13.29,0.03,139.0
2022-12-15T08:37:03,42.805,6.029,0.013,-0.036,0.0,103.0,102.0,102.0,13.4,1505.2,330.0,-0.8,1.8,2471.131,13.29,0.038,160.1
2022-12-15T08:40:03,42.805,6.029,0.019,-0.024,-0.014,104.0,103.0,101.0,13.4,1505.2,326.4,-0.7,1.8,2471.147,13.29,0.03,141.6
2022-12-15T08:43:03,42.805,6.029,0.014,-0.034,0.002,102.0,102.0,102.0,13.4,1505.2,329.7,-0.7,1.8,2471.174,13.29,0.036,157.6
2022-12-15T08:46:03,42.805,6.029,0.008,-0.007,0.038,102.0,103.0,101.0,13.4,1505.2,332.1,-0.8,1.8,2471.184,13.29,0.01,131.2
2022-12-15T08:49:03,42.805,6.029,0.042,-0.02,0.008,103.0,102.0,102.0,13.4,1505.2,321.5,-0.7,1.8,2471.138,13.29,0.046,115.5
2022-12-15T08:52:03,42.805,6.029,0.031,-0.031,0.017,102.0,101.0,103.0,13.3,1505.2,336.4,-0.8,1.8,2471.146,13.29,0.043,135.0
2022-12-15T08:55:03,42.805,6.029,0.032,-0.017,0.012,102.0,101.0,102.0,13.4,1505.2,321.2,-0.7,1.8,2471.163,13.29,0.036,118.0
2022-12-15T08:58:03,42.805,6.029,0.011,-0.015,0.012,102.0,101.0,101.0,13.4,1505.2,332.7,-0.8,1.8,2471.164,13.29,0.018,143.7
2022-12-15T09:04:03,42.805,6.029,0.043,-0.042,0.039,102.0,102.0,102.0,13.4,1505.2,332.4,-0.7,1.8,2471.211,13.28,0.06,134.3
2022-12-15T09:07:03,42.805,6.029,0.015,-0.029,0.055,102.0,102.0,101.0,13.4,1505.2,327.0,-0.8,1.9,2471.178,13.28,0.032,152.6
2022-12-15T09:10:03,42.805,6.029,-0.003,-0.013,0.015,102.0,102.0,102.0,13.3,1505.2,323.9,-0.8,1.8,2471.204,13.28,0.013,193.0
2022-12-15T09:13:03,42.805,6.029,0.004,-0.029,-0.008,102.0,101.0,101.0,13.4,1505.2,330.5,-0.7,1.8,2471.152,13.28,0.029,172.2
2022-12-15T09:16:03,42.805,6.029,0.027,-0.021,0.02,102.0,101.0,102.0,13.3,1505.2,327.9,-0.8,1.8,2471.166,13.28,0.034,127.9
2022-12-15T09:19:03,42.805,6.029,0.008,-0.013,0.023,102.0,102.0,101.0,13.4,1505.2,317.4,-0.8,1.8,2471.179,13.29,0.015,148.4
2022-12-15T09:22:03,42.805,6.029,-0.006,-0.021,0.003,102.0,102.0,102.0,13.4,1505.2,322.1,-0.8,1.8,2471.169,13.29,0.021,195.9
2022-12-15T09:25:03,42.805,6.029,0.007,-0.031,0.008,102.0,102.0,101.0,13.4,1505.2,334.5,-0.8,1.8,2471.206,13.29,0.031,167.3
2022-12-15T09:28:03,42.805,6.029,-0.001,-0.029,-0.003,102.0,102.0,101.0,13.4,1505.2,329.4,-0.8,1.8,2471.168,13.29,0.029,182.0
2022-12-15T09:31:03,42.805,6.029,-0.011,0.009,0.007,102.0,102.0,101.0,13.4,1505.2,325.2,-0.7,1.8,2471.203,13.29,0.014,309.3
2022-12-15T09:34:03,42.805,6.029,0.012,-0.022,0.024,102.0,102.0,101.0,13.4,1505.2,317.0,-0.7,1.9,2471.179,13.29,0.025,151.4
2022-12-15T09:37:03,42.805,6.029,0.01,-0.028,0.013,102.0,101.0,102.0,13.4,1505.2,319.0,-0.8,1.8,2471.162,13.29,0.029,160.4
2022-12-15T09:40:03,42.805,6.029,0.003,-0.028,-0.006,102.0,102.0,101.0,13.3,1505.2,334.9,-0.7,1.8,2471.171,13.29,0.028,173.9
2022-12-15T09:43:03,42.805,6.029,0.006,-0.024,0.011,102.0,102.0,101.0,13.4,1505.2,324.5,-0.7,1.8,2471.208,13.29,0.024,166.0
2022-12-15T09:46:03,42.805,6.029,0.018,-0.03,0.038,103.0,101.0,102.0,13.4,1505.2,337.2,-0.8,1.8,2471.167,13.29,0.034,149.0
2022-12-15T09:49:03,42.805,6.029,0.024,-0.033,-0.011,104.0,102.0,100.0,13.4,1505.2,316.4,-0.7,1.8,2471.167,13.29,0.04,144.0
2022-12-15T09:52:03,42.805,6.029,0.014,-0.005,0.039,101.0,101.0,102.0,13.4,1505.2,317.4,-0.7,1.8,2471.239,13.29,0.014,109.6
2022-12-15T09:55:03,42.805,6.029,0.005,-0.043,-0.004,102.0,102.0,101.0,13.4,1505.2,333.4,-0.8,1.8,2471.171,13.29,0.043,173.4
2022-12-15T09:58:03,42.805,6.029,0.0,-0.008,0.026,102.0,102.0,102.0,13.4,1505.2,326.7,-0.8,1.9,2471.218,13.29,0.008,180.0